Date,TemperatureHighF,TemperatureAvgF,TemperatureLowF,DewpointHighF,DewpointAvgF,DewpointLowF,HumidityHigh,HumidityAvg,HumidityLow,PressureMaxIn,PressureMinIn,WindSpeedMaxMPH,WindSpeedAvgMPH,GustSpeedMaxMPH,PrecipitationSumIn
2013-1-1,48.9,40.3,35.4,46.7,38.3,29.2,99,93,72,30.20,30.00,18,1,18,0.50
2013-1-2,43.0,36.7,34.4,42.7,34.9,31.8,99,93,85,30.19,29.99,8,0,0,0.14
2013-1-3,39.9,34.0,28.5,32.7,30.4,26.2,96,87,66,30.36,30.17,8,1,0,0.00
2013-1-4,37.4,28.3,21.1,27.9,23.8,19.9,96,84,61,30.46,30.36,14,2,14,0.00
2013-1-7,35.1,28.0,26.7,27.4,25.8,24.6,94,91,75,30.37,30.35,3,0,0,0.00
2013-1-8,54.4,36.5,23.2,32.7,26.4,20.7,93,70,32,30.48,30.35,5,0,0,0.00
2013-1-9,48.5,41.2,30.9,46.4,38.6,27.6,96,90,81,30.53,30.37,4,0,0,0.00
2013-1-10,66.1,54.1,42.0,56.0,49.2,41.2,99,85,65,30.53,30.24,17,1,17,0.01
2013-1-11,66.3,59.0,51.6,58.8,52.8,47.0,97,80,71,30.24,30.04,15,2,15,0.00
2013-1-12,71.3,61.4,53.3,62.1,57.0,52.1,98,86,67,30.16,30.00,9,1,0,0.00
2013-1-13,74.2,66.0,58.2,57.6,53.6,51.0,95,65,46,30.06,29.92,13,3,16,0.28
2013-1-14,59.0,49.2,39.0,57.9,48.5,38.5,99,97,95,30.27,30.00,8,1,0,2.52
2013-1-15,57.2,44.5,39.0,54.0,44.1,38.5,100,98,88,30.20,29.96,10,1,0,2.49
2013-1-16,57.8,50.3,46.2,55.5,49.6,45.7,100,97,90,30.06,29.89,10,1,14,0.86
2013-1-17,46.2,37.6,32.1,45.8,36.9,30.5,100,97,94,30.34,29.94,8,1,0,0.81
2013-1-18,38.4,29.8,24.2,31.5,27.6,23.7,99,92,73,30.59,30.34,5,0,0,0.16
2013-1-19,46.4,30.7,18.5,33.5,26.9,17.6,99,87,52,30.49,30.24,5,0,0,0.30
2013-1-20,49.3,37.5,24.9,36.6,30.5,24.2,98,77,52,30.24,30.15,13,2,15,0.05
2013-1-21,42.9,33.5,25.1,30.7,22.2,7.6,98,67,36,30.17,30.07,18,4,24,0.01
2013-1-22,27.7,23.5,18.1,9.6,3.2,-2.3,57,42,29,30.35,30.16,14,4,18,0.00
2013-1-23,34.6,25.8,23.4,24.0,6.4,-1.3,68,44,33,30.43,30.14,10,3,0,0.00
2013-1-24,40.1,30.0,19.0,31.6,13.9,1.3,72,52,32,30.48,30.12,14,4,19,0.00
2013-1-25,32.7,28.3,20.0,32.1,23.0,7.6,98,82,49,30.42,30.14,6,1,9,0.13
2013-1-26,39.2,33.4,26.7,33.3,30.9,25.5,99,91,74,30.42,30.22,5,2,10,0.01
2013-1-27,48.8,31.7,23.6,36.8,28.2,22.9,98,88,57,30.49,30.41,2,0,4,0.01
2013-1-28,58.9,52.5,48.6,47.1,46.3,45.4,93,80,62,30.27,30.23,4,1,7,0.03
2013-1-29,70.1,55.3,37.5,55.7,47.9,37.0,99,79,46,30.26,29.92,5,1,10,0.01
2013-1-30,69.7,59.6,42.1,59.3,53.0,38.8,98,80,64,29.92,29.43,14,6,25,1.88
2013-1-31,41.7,33.5,29.3,38.7,26.6,20.9,93,76,54,30.02,29.55,12,8,20,0.00
2013-2-1,16.3,16.2,16.2,13.4,13.3,13.0,88,88,87,30.44,30.44,0,0,0,0.00
2013-2-2,31.5,26.8,16.3,30.4,25.2,13.4,96,94,85,30.44,30.13,5,2,8,0.00
2013-2-3,37.4,32.0,28.5,32.9,28.6,20.1,96,87,70,30.19,30.00,10,4,19,0.08
2013-2-4,41.6,29.4,16.5,29.9,22.4,14.9,95,77,46,30.20,30.01,3,0,12,0.06
2013-2-5,49.6,40.0,32.5,41.6,34.1,28.4,91,80,63,30.05,29.98,6,2,9,0.02
2013-2-6,53.9,40.6,30.3,36.6,31.5,24.4,96,73,33,30.25,30.03,5,2,10,0.00
2013-2-7,55.0,42.3,30.5,41.6,34.4,27.6,91,75,50,30.24,29.98,5,1,9,0.01
2013-2-8,51.0,42.3,36.4,46.4,37.2,28.3,98,84,45,30.24,29.91,10,3,14,0.11
2013-2-9,29.8,29.5,29.0,25.0,24.8,24.5,83,82,81,30.33,30.31,0,0,1,0.00
2013-2-10,53.4,48.2,42.8,45.7,40.5,28.0,91,75,41,30.20,30.02,9,4,16,0.15
2013-2-11,57.5,53.8,44.4,50.7,47.2,34.4,92,79,62,30.09,29.96,10,6,17,0.00
2013-2-12,47.1,39.4,31.7,39.1,31.3,26.0,91,74,47,30.20,29.91,4,0,9,0.03
2013-2-13,50.9,41.8,35.8,45.0,38.7,32.2,97,89,78,29.97,29.65,11,3,15,0.23
2013-2-14,45.7,35.1,29.6,32.9,29.9,26.8,91,82,52,30.08,29.96,3,1,14,0.00
2013-2-15,54.2,37.1,25.6,38.9,31.4,24.5,97,82,47,30.14,29.99,9,2,18,0.05
2013-2-16,32.7,29.2,22.8,31.7,24.1,13.0,96,82,49,30.10,29.98,8,2,18,0.00
2013-2-17,34.6,25.5,20.2,18.0,11.3,5.9,82,56,34,30.33,30.09,11,5,21,0.00
2013-2-18,56.4,36.4,16.0,31.9,21.5,13.1,92,59,32,30.40,30.06,13,2,21,0.00
2013-2-19,47.6,42.4,33.6,40.9,27.8,12.5,95,59,33,30.12,29.90,13,7,24,0.06
2013-2-20,41.1,31.8,22.5,18.8,14.9,7.5,76,51,27,30.25,30.12,8,3,22,0.00
2013-2-21,50.8,34.9,17.6,38.9,18.5,8.4,94,58,19,30.32,30.10,3,1,10,0.25
2013-2-22,55.7,47.6,40.1,45.0,40.9,36.6,95,78,63,30.20,30.00,9,3,17,0.30
2013-2-23,56.4,47.3,41.4,49.7,44.4,40.6,98,90,72,30.04,29.84,5,1,10,0.06
2013-2-24,51.2,42.6,29.7,45.4,32.6,25.6,96,70,42,30.10,29.88,7,3,11,0.00
2013-2-25,42.2,40.9,36.2,34.1,32.1,28.0,77,71,66,30.09,29.94,4,1,10,0.00
2013-2-26,57.3,44.3,39.2,46.0,37.1,29.8,89,76,62,29.95,29.49,13,3,24,0.05
2013-2-27,45.9,39.6,35.1,35.3,33.8,32.2,93,80,65,29.84,29.65,9,5,17,0.06
2013-2-28,36.4,33.6,31.6,32.8,28.4,25.0,95,81,66,30.00,29.78,9,4,14,0.09
2013-3-1,37.3,33.4,31.4,33.7,30.8,27.8,95,90,80,30.00,29.94,5,3,14,0.05
2013-3-2,34.3,31.5,26.3,32.3,27.7,21.1,95,86,67,30.06,29.92,7,2,15,0.02
2013-3-3,30.8,26.6,22.3,23.4,19.2,15.3,91,74,62,30.14,30.04,7,3,16,0.00
2013-3-4,47.4,34.6,22.1,29.4,20.7,16.0,81,59,30,30.25,30.07,4,1,16,0.02
2013-3-5,49.7,39.7,30.9,47.2,36.9,26.8,98,90,68,30.08,29.63,14,2,30,1.23
2013-3-6,32.5,29.2,26.6,29.5,26.1,22.2,95,88,77,30.28,29.77,9,5,18,0.00
2013-3-7,34.4,31.2,28.5,28.7,27.0,25.8,93,84,74,30.40,30.27,4,1,13,0.00
2013-3-8,45.9,38.1,28.4,29.2,26.7,24.8,89,65,45,30.44,30.35,5,1,9,0.00
2013-3-9,64.5,42.6,24.1,35.6,28.1,16.6,96,64,20,30.39,30.21,5,1,8,0.00
2013-3-10,69.4,53.4,37.0,37.6,33.3,30.1,82,51,25,30.24,30.05,8,2,16,0.00
2013-3-11,59.1,54.6,47.7,50.5,44.9,32.9,96,71,48,30.07,29.77,11,4,21,0.89
2013-3-12,52.4,42.1,32.7,49.7,37.9,30.4,97,86,62,30.08,29.78,8,3,21,0.24
2013-3-13,39.8,34.4,29.3,32.5,24.7,14.9,93,70,47,30.32,30.07,13,5,22,0.00
2013-3-14,29.9,29.6,29.1,15.8,15.5,14.6,56,55,54,30.32,30.31,7,6,22,0.00
2013-3-17,60.5,54.5,51.7,51.3,48.4,46.6,85,80,71,29.91,29.86,3,1,22,0.00
2013-3-18,57.6,51.9,46.1,49.4,45.6,42.1,97,80,64,29.92,29.74,12,4,22,0.63
2013-3-19,53.7,45.9,36.2,48.1,30.8,7.8,98,61,18,30.12,29.80,11,5,19,0.18
2013-3-20,48.7,37.9,25.3,30.8,19.8,9.6,89,52,26,30.15,29.88,11,3,18,0.00
2013-3-21,34.7,27.8,21.0,26.4,12.2,7.5,81,52,36,30.07,29.91,9,4,15,0.00
2013-3-22,38.3,22.0,14.9,26.9,14.8,11.7,92,75,50,30.15,30.07,2,0,15,0.00
2013-3-23,50.7,42.7,36.9,38.9,32.5,24.8,84,67,58,30.10,29.84,3,0,4,0.00
2013-3-24,55.6,46.0,41.9,48.6,42.2,38.2,96,87,68,29.85,29.40,10,2,14,1.14
2013-3-25,42.7,32.6,29.5,40.3,29.2,25.9,96,87,75,29.98,29.50,13,8,27,0.00
2013-3-26,35.7,32.8,29.3,30.7,28.5,26.8,93,84,73,30.29,30.06,8,4,18,0.03
2013-3-27,40.2,32.9,27.5,29.0,25.6,21.8,92,76,53,30.37,30.27,6,3,17,0.00
2013-3-28,42.7,34.5,27.6,27.2,25.9,23.1,84,71,48,30.36,30.32,0,0,10,0.00
2013-3-29,50.5,36.6,22.4,38.0,28.8,18.3,96,77,29,30.39,30.29,10,2,17,0.01
2013-3-30,58.7,45.3,38.0,44.0,39.9,36.7,97,83,54,30.30,30.02,4,0,17,0.00
2013-3-31,58.9,51.9,45.7,52.6,49.2,41.6,99,91,76,30.03,29.84,9,3,17,0.53
2013-4-1,58.0,51.6,45.3,50.2,43.7,32.3,98,77,47,30.04,29.88,11,4,21,0.00
2013-4-2,48.7,38.4,30.8,33.2,27.5,20.3,90,67,37,30.21,30.04,5,1,21,0.00
2013-4-3,45.3,30.7,24.9,26.7,22.8,18.8,85,74,35,30.33,30.21,1,0,2,0.00
2013-4-4,44.4,38.6,34.6,36.1,30.0,19.4,97,74,38,30.27,30.00,3,0,7,1.20
2013-4-5,55.2,43.5,36.0,43.1,38.4,35.2,98,84,58,30.12,30.00,5,2,10,0.02
2013-4-6,69.6,47.8,30.3,40.5,33.7,29.6,98,67,29,30.24,30.08,9,2,13,0.00
2013-4-7,69.0,61.1,54.2,45.9,39.2,32.1,70,45,35,30.14,30.02,7,4,16,0.00
2013-4-8,75.9,62.5,44.7,53.9,47.6,41.0,91,61,42,30.09,29.99,6,2,10,0.00
2013-4-9,79.0,61.0,45.7,57.4,50.3,44.1,97,71,42,30.17,30.01,7,1,10,0.00
2013-4-11,81.3,75.2,62.6,62.0,54.5,48.0,90,51,34,29.79,29.61,11,4,18,0.34
2013-4-12,64.7,57.4,47.0,59.7,50.4,40.0,95,79,49,29.91,29.53,11,5,28,0.71
2013-4-13,64.9,52.6,41.4,44.2,39.4,36.1,87,64,36,30.06,29.91,9,3,15,0.00
2013-4-14,74.5,56.5,36.7,45.2,38.9,35.1,96,59,27,30.08,29.94,11,2,17,0.00
2013-4-16,71.6,70.9,70.5,57.1,56.8,56.4,62,61,60,30.15,30.14,6,5,10,0.00
2013-4-17,70.6,63.2,56.6,62.6,59.0,55.6,98,87,62,30.26,30.05,5,1,9,1.01
2013-4-18,78.3,69.1,55.1,60.8,56.6,51.4,99,67,42,30.06,29.81,10,3,20,0.00
2013-4-19,71.4,60.5,45.0,61.4,52.4,33.3,96,76,61,29.99,29.62,14,6,22,0.54
2013-4-20,55.4,45.1,33.9,38.6,33.1,28.8,87,64,41,30.32,29.99,6,2,11,0.00
2013-4-21,65.0,49.1,31.9,37.2,32.9,28.1,97,60,28,30.44,30.29,6,1,11,0.00
2013-4-22,66.2,52.5,37.9,43.4,37.6,34.0,89,60,33,30.37,30.16,5,1,9,0.00
2013-4-23,71.3,55.0,35.8,50.4,40.3,32.2,90,61,32,30.24,30.04,4,1,9,0.00
2013-4-24,61.9,56.4,47.2,50.2,45.7,44.2,95,70,53,30.17,30.04,5,4,14,0.19
2013-4-25,59.9,49.1,37.3,45.6,38.0,32.1,96,68,37,30.36,30.16,5,1,9,0.00
2013-4-26,66.6,51.3,32.6,41.6,36.0,31.5,98,62,30,30.45,30.31,4,1,7,0.00
2013-4-27,58.9,56.7,54.9,54.3,51.8,49.3,91,84,73,30.30,30.14,3,1,11,0.08
2013-4-28,60.7,55.7,49.5,54.1,50.0,44.7,96,82,63,30.16,29.89,12,4,18,0.93
2013-4-29,69.5,60.1,48.4,56.0,52.4,47.0,97,77,57,30.03,29.93,6,1,9,0.00
2013-4-30,77.4,62.6,46.3,58.8,53.2,45.4,99,74,46,30.10,29.96,3,0,6,0.00
2013-5-1,70.4,59.4,48.1,55.2,51.2,47.1,98,76,48,30.22,30.10,4,1,14,0.00
2013-5-2,73.7,62.7,53.5,56.0,52.1,49.0,89,70,47,30.22,30.14,7,2,11,0.00
2013-5-3,69.5,59.9,49.3,53.2,48.3,39.7,95,68,37,30.17,30.03,8,2,12,0.00
2013-5-4,62.9,56.4,49.1,49.4,44.1,34.3,88,64,49,30.04,29.92,5,1,12,0.04
2013-5-5,63.7,53.8,50.6,53.3,48.8,45.0,96,83,61,29.96,29.78,6,1,10,0.26
2013-5-6,70.6,57.9,49.3,56.3,48.6,35.3,99,76,30,29.89,29.76,9,2,13,0.70
2013-5-7,61.4,53.1,43.9,54.7,48.9,43.1,98,86,64,29.96,29.86,6,1,11,0.72
2013-5-8,55.4,53.6,53.2,54.7,52.6,51.9,98,97,95,30.04,29.92,3,2,5,0.45
2013-5-9,74.7,60.9,47.1,61.4,54.3,46.8,100,82,51,30.12,30.02,5,1,11,0.01
2013-5-10,62.2,61.9,61.8,61.4,61.1,60.7,98,97,95,29.96,29.94,1,0,6,0.26
2013-5-11,68.1,62.9,58.9,63.0,58.9,51.8,98,87,71,29.95,29.81,7,2,10,0.07
2013-5-12,58.9,53.1,41.4,52.4,42.1,31.9,94,69,38,30.10,29.92,5,2,14,0.00
2013-5-13,59.4,48.7,37.5,39.9,34.1,27.6,92,61,31,30.23,30.10,6,2,14,0.00
2013-5-14,72.3,55.8,34.9,54.3,43.4,33.6,97,66,39,30.26,30.03,6,2,11,0.00
2013-5-15,79.9,68.4,53.8,60.4,55.8,51.1,91,66,46,30.12,29.94,7,2,12,0.00
2013-5-16,73.1,64.1,56.9,60.6,56.0,53.4,91,76,57,30.02,29.96,4,1,7,0.00
2013-5-17,81.6,64.8,52.6,63.5,57.9,51.2,98,81,49,30.09,29.99,6,0,11,0.57
2013-5-18,72.5,64.8,58.0,65.6,61.9,57.4,99,91,72,30.07,30.00,5,1,12,0.14
2013-5-19,80.7,68.5,61.3,69.1,63.8,60.2,99,86,59,30.05,29.94,7,1,12,0.07
2013-5-20,80.3,68.1,58.8,67.3,62.9,58.2,99,85,59,30.10,29.97,3,0,5,0.02
2013-5-21,84.6,70.8,59.5,69.7,63.5,58.6,99,80,46,30.04,29.87,11,1,18,0.17
2013-5-22,82.3,67.1,59.0,71.0,62.7,58.3,99,88,53,29.95,29.81,8,1,16,0.86
2013-5-23,75.8,65.6,59.8,66.1,61.3,55.3,100,87,56,29.95,29.83,7,2,13,0.79
2013-5-24,63.2,57.4,45.1,56.7,46.8,36.8,95,71,39,30.26,29.94,5,2,11,0.00
2013-5-25,67.4,55.0,39.3,49.4,42.9,36.8,98,68,38,30.37,30.20,3,1,9,0.00
2013-5-26,69.6,58.4,51.8,52.5,48.6,39.0,94,72,40,30.29,30.19,3,0,7,0.00
2013-5-27,79.6,66.1,48.1,62.7,55.0,47.3,99,71,48,30.23,30.07,4,1,7,0.00
2013-5-28,82.8,74.8,66.7,65.3,59.7,56.6,72,60,47,30.15,30.04,5,2,10,0.00
2013-5-29,83.9,74.0,58.4,65.2,60.5,56.6,96,65,46,30.17,30.06,4,1,11,0.00
2013-5-30,87.1,73.6,56.8,65.3,59.5,55.3,96,64,38,30.20,30.06,5,2,11,0.00
2013-5-31,85.5,75.1,62.6,64.8,59.1,53.1,87,60,36,30.15,30.01,8,2,12,0.00
2013-6-1,86.9,77.9,67.5,66.7,61.4,55.7,81,58,36,30.04,29.89,8,4,19,0.00
2013-6-2,74.7,69.6,63.3,67.7,65.0,62.1,98,86,66,29.95,29.83,10,2,20,0.73
2013-6-3,77.5,69.4,63.2,67.7,63.1,59.1,99,82,56,29.97,29.86,5,1,10,0.00
2013-6-4,81.0,69.0,56.5,64.7,60.5,55.7,99,77,50,30.03,29.95,3,0,5,0.00
2013-6-5,84.7,71.2,58.3,66.7,62.5,57.1,98,77,47,30.04,29.88,7,1,12,0.19
2013-6-6,78.0,70.3,63.9,68.6,65.7,63.0,98,86,65,29.93,29.73,4,1,7,0.01
2013-6-7,74.8,69.1,64.9,68.6,65.6,63.1,97,89,74,29.82,29.67,2,0,5,0.15
2013-6-8,78.0,69.0,61.5,67.1,63.3,60.7,99,84,57,30.06,29.82,4,1,7,0.26
2013-6-9,84.9,68.4,58.6,71.0,63.3,57.9,99,86,50,30.11,29.96,5,0,12,0.39
2013-6-10,76.9,71.1,66.4,70.3,65.1,59.6,98,82,60,29.99,29.84,7,2,12,0.49
2013-6-11,78.7,71.1,64.6,66.0,63.4,60.1,97,78,57,30.00,29.87,7,2,10,0.05
2013-6-12,87.2,76.4,64.5,76.0,69.2,62.7,95,79,61,30.01,29.87,5,2,12,0.00
2013-6-13,78.3,72.6,66.0,68.8,66.3,59.8,94,81,67,29.87,29.75,5,2,7,0.91
2013-6-14,76.1,66.0,55.3,61.8,57.1,52.5,99,76,46,30.06,29.83,3,1,7,0.00
2013-6-15,79.2,67.2,51.6,64.0,57.9,51.1,99,75,47,30.14,30.03,4,0,7,0.00
2013-6-16,71.6,65.3,61.5,66.8,62.5,60.0,96,91,84,30.07,30.00,0,0,1,0.00
2013-6-17,78.3,71.0,64.9,70.5,67.4,63.7,98,89,70,30.04,29.90,6,1,9,0.69
2013-6-18,70.2,67.9,65.0,69.0,66.4,64.0,98,95,87,29.95,29.81,3,0,5,1.13
2013-6-19,80.8,69.0,58.5,67.6,62.6,58.2,100,82,51,30.08,29.93,2,0,5,0.00
2013-6-20,83.0,70.3,58.4,68.1,63.4,57.8,99,80,55,30.18,30.08,5,0,9,0.00
2013-6-21,82.7,71.3,60.0,69.3,64.6,59.1,98,81,57,30.22,30.12,3,0,6,0.00
2013-6-22,84.1,70.8,57.6,64.2,59.2,48.2,99,71,29,30.22,30.07,2,0,5,0.01
2013-6-23,85.6,72.2,59.3,69.2,63.5,58.4,98,76,50,30.19,30.08,4,0,9,0.00
2013-6-24,84.0,74.6,63.9,73.6,67.3,62.4,96,79,60,30.18,30.05,4,0,9,0.18
2013-6-25,81.6,73.5,65.5,71.6,67.9,63.7,95,83,64,30.12,29.98,4,1,10,0.00
2013-6-26,82.2,72.5,64.9,73.3,68.3,64.0,98,87,67,30.01,29.87,5,1,9,0.00
2013-6-27,79.0,71.3,64.7,74.5,68.2,62.4,97,90,72,29.89,29.75,10,2,14,0.61
2013-6-28,82.7,73.9,67.7,73.1,69.4,65.4,96,86,68,29.80,29.61,6,3,10,0.00
2013-6-29,80.5,71.8,63.3,68.1,63.2,56.5,98,77,46,29.68,29.60,6,2,10,0.00
2013-6-30,84.5,71.3,58.8,67.3,62.3,58.2,99,77,45,29.78,29.67,8,0,9,0.93
2013-7-1,81.0,70.8,64.6,71.0,66.2,64.0,99,87,61,29.90,29.75,5,0,11,0.43
2013-7-2,85.2,71.9,64.6,69.9,66.5,63.6,99,85,51,30.06,29.88,7,1,13,0.06
2013-7-3,73.1,67.1,62.4,71.1,65.9,62.0,99,96,91,30.20,30.04,3,0,7,3.28
2013-7-4,83.2,70.5,62.3,71.7,66.4,62.0,100,88,64,30.19,30.10,6,1,11,0.31
2013-7-5,83.3,74.4,67.0,71.3,67.0,64.4,96,79,62,30.17,30.09,6,1,11,0.00
2013-7-6,86.5,74.7,66.9,71.4,67.7,65.4,99,81,56,30.14,30.03,8,2,12,0.25
2013-7-7,77.7,70.6,67.6,71.8,68.6,66.7,98,94,79,30.14,30.05,3,0,9,0.43
2013-7-8,84.3,73.3,66.3,71.7,68.1,64.9,99,85,57,30.19,30.08,3,0,6,0.00
2013-7-9,85.3,74.6,63.9,72.6,68.3,63.3,99,82,58,30.15,30.02,2,0,6,0.00
2013-7-10,84.7,75.5,69.3,77.6,71.2,67.6,98,87,67,30.06,29.88,9,1,18,0.83
2013-7-11,78.7,72.7,66.9,72.6,69.8,66.3,99,91,77,29.94,29.85,3,1,6,0.36
2013-7-12,78.5,67.9,64.5,70.3,66.4,64.2,100,95,69,29.95,29.88,2,0,3,0.01
2013-7-14,83.6,82.7,82.2,67.1,66.8,66.5,60,59,57,30.17,30.16,4,2,8,0.27
2013-7-15,83.9,81.5,78.4,69.6,68.0,66.4,73,64,59,30.29,30.28,2,0,11,0.00
2013-7-16,89.0,82.8,72.4,72.3,69.0,64.1,90,65,47,30.32,30.21,2,0,6,0.00
2013-7-17,88.3,74.2,66.7,75.8,70.1,66.1,99,88,60,30.28,30.13,4,0,10,1.30
2013-7-18,89.3,74.2,67.1,76.6,69.7,66.7,99,87,56,30.20,30.05,4,0,8,0.00
2013-7-19,85.6,75.7,66.2,75.2,70.6,65.8,99,85,66,30.09,29.94,6,1,13,0.75
2013-7-20,85.9,74.2,68.2,74.7,70.6,67.4,99,89,64,30.01,29.88,5,1,8,0.01
2013-7-21,82.6,71.9,67.9,74.7,69.4,67.0,99,92,72,29.99,29.90,5,1,8,0.04
2013-7-22,83.0,72.6,64.8,73.7,69.0,64.5,99,89,65,29.97,29.78,7,1,15,1.10
2013-7-23,82.0,73.1,68.8,72.3,69.2,66.6,98,88,65,29.89,29.77,5,2,9,0.16
2013-7-24,81.3,74.8,70.1,72.8,69.3,65.6,99,84,63,29.85,29.76,4,1,8,0.01
2013-7-25,81.2,71.4,62.4,67.7,63.6,58.4,99,78,50,30.03,29.84,2,0,5,0.00
2013-7-26,85.1,70.6,57.0,70.4,63.6,56.4,99,81,52,30.05,29.95,7,1,10,1.23
2013-7-27,77.9,71.4,67.2,71.7,68.3,65.9,99,90,67,29.99,29.86,4,0,7,0.15
2013-7-28,79.0,70.8,63.2,69.2,65.6,61.4,98,85,59,30.03,29.88,5,1,9,0.07
2013-7-29,78.6,66.7,56.1,63.2,58.8,53.3,99,79,46,30.20,30.02,3,0,5,0.00
2013-7-30,79.0,67.1,55.1,67.0,60.5,54.4,99,81,49,30.22,30.14,3,0,6,0.00
2013-7-31,74.0,67.5,62.7,70.6,65.6,60.5,98,94,86,30.17,29.95,2,0,5,0.43
2013-8-1,81.2,72.8,66.1,70.8,67.8,63.7,99,86,59,29.97,29.89,3,0,6,0.06
2013-8-2,81.8,71.7,62.8,67.6,64.6,61.2,99,80,53,30.03,29.94,2,0,5,0.00
2013-8-3,80.0,71.9,62.9,70.6,66.6,61.8,98,84,67,30.02,29.95,5,1,8,0.00
2013-8-4,80.8,73.5,66.9,70.1,65.8,57.9,98,79,48,30.04,29.95,4,1,6,0.15
2013-8-5,82.0,71.4,60.1,68.9,64.0,59.5,99,79,57,30.05,29.94,3,0,7,0.00
2013-8-6,83.0,73.3,63.5,71.9,66.0,62.0,96,79,58,30.00,29.92,3,0,7,0.00
2013-8-7,80.3,73.6,69.1,74.3,69.4,67.2,98,87,77,30.00,29.93,5,1,10,0.79
2013-8-8,81.5,75.5,67.8,74.9,70.6,66.6,97,85,71,30.01,29.95,6,1,10,0.00
2013-8-9,85.6,76.1,68.5,75.1,71.3,67.9,99,86,65,30.04,29.94,4,1,10,0.00
2013-8-10,84.7,74.2,68.9,76.7,71.5,68.3,99,92,74,30.09,30.01,4,1,8,1.00
2013-8-11,83.2,72.8,65.9,74.6,70.1,65.6,100,92,71,30.13,30.02,5,1,9,0.01
2013-8-12,82.7,74.0,69.0,75.6,70.9,68.4,98,91,74,30.08,29.94,5,1,9,0.07
2013-8-13,77.3,71.5,68.7,73.0,69.7,65.6,99,94,83,29.95,29.83,8,1,11,0.62
2013-8-14,73.7,67.2,57.2,66.1,59.5,54.7,97,78,53,30.07,29.91,2,0,4,0.00
2013-8-15,77.0,65.0,53.9,64.0,58.8,53.3,99,82,58,30.10,30.02,5,0,8,0.00
2013-8-16,80.1,66.9,55.8,64.5,59.7,55.1,98,80,49,30.11,30.03,3,0,6,0.00
2013-8-17,76.0,66.3,55.7,65.9,60.5,55.1,98,83,59,30.15,30.07,2,0,5,0.00
2013-8-18,79.5,69.0,64.2,69.9,65.4,63.3,98,89,65,30.17,30.08,5,1,10,0.35
2013-8-19,79.0,70.1,65.2,69.6,66.6,64.6,99,90,67,30.16,30.04,1,0,4,0.30
2013-8-20,84.5,72.1,65.0,71.3,67.9,64.7,99,88,59,30.16,30.06,6,0,13,0.63
2013-8-21,81.1,71.6,65.1,72.1,68.6,64.8,100,91,71,30.20,30.08,3,0,5,0.00
2013-8-22,83.3,72.9,64.7,72.8,68.5,64.4,100,87,63,30.16,30.00,2,0,6,0.00
2013-8-23,80.9,70.2,63.7,71.9,67.9,63.4,100,93,65,30.08,29.97,4,1,6,0.06
2013-8-24,84.7,70.9,62.1,67.5,62.6,55.3,100,79,37,30.26,30.08,3,1,7,0.00
2013-8-25,81.1,66.7,52.1,63.6,57.5,50.2,99,76,36,30.36,30.24,2,0,4,0.00
2013-8-26,80.8,67.1,54.3,68.7,61.8,54.0,99,85,59,30.31,30.13,3,0,6,0.00
2013-8-27,79.6,70.6,62.7,72.4,67.0,61.8,98,89,73,30.15,30.02,4,1,7,0.00
2013-8-28,83.9,74.5,68.0,75.5,70.0,67.1,98,87,68,30.04,29.93,5,1,8,0.00
2013-8-29,87.0,76.9,69.2,74.4,71.1,68.3,98,83,57,29.97,29.88,3,1,6,0.01
2013-8-30,86.3,75.0,63.9,73.4,68.7,63.6,99,83,55,29.99,29.88,4,1,10,0.00
2013-8-31,83.5,73.8,68.4,74.8,70.2,66.3,99,89,68,29.93,29.83,4,1,8,0.19
2013-9-1,82.2,72.4,66.9,74.3,69.4,66.3,99,91,70,29.89,29.79,4,1,8,0.71
2013-9-2,80.2,73.5,67.6,73.5,69.7,66.5,97,88,75,29.91,29.80,5,1,7,0.00
2013-9-3,79.3,69.4,62.2,71.8,65.8,61.3,99,89,67,30.00,29.80,5,1,10,0.34
2013-9-4,81.4,67.6,57.6,66.7,61.6,57.3,99,83,54,30.12,30.00,2,0,5,0.01
2013-9-5,80.6,66.0,53.7,64.6,58.7,49.7,100,81,38,30.17,30.10,2,0,4,0.00
2013-9-6,82.7,67.4,54.0,66.1,60.0,53.7,100,80,46,30.18,30.06,2,0,7,0.00
2013-9-7,80.7,67.9,55.0,67.9,62.3,54.6,100,84,55,30.11,29.99,4,1,7,0.00
2013-9-8,81.7,71.0,63.7,70.7,66.5,62.7,98,87,63,30.01,29.93,4,1,6,0.00
2013-9-9,86.4,72.7,60.5,70.9,65.8,60.2,100,81,52,30.11,29.99,4,1,10,0.00
2013-9-10,87.3,74.3,61.7,70.5,66.5,61.1,99,79,52,30.21,30.09,3,0,6,0.00
2013-9-11,73.2,71.2,68.9,69.6,68.0,66.2,92,89,86,30.18,30.16,0,0,1,0.00
2013-9-16,67.3,66.1,64.5,61.7,60.8,60.1,86,83,80,30.18,30.16,1,0,2,0.00
2013-9-17,74.6,64.6,56.2,61.1,57.8,54.8,97,80,58,30.23,30.16,6,1,9,0.00
2013-9-18,71.3,61.6,53.8,62.7,58.3,52.7,98,90,65,30.23,30.15,1,0,4,0.06
2013-9-19,76.2,66.4,62.0,67.3,63.8,61.3,99,92,72,30.18,30.06,4,1,7,0.00
2013-9-20,80.8,68.0,57.7,68.6,63.5,57.3,100,87,60,30.08,29.88,4,0,6,0.00
2013-9-21,71.1,66.1,60.9,65.6,62.7,60.0,98,89,74,29.88,29.70,9,1,14,0.63
2013-9-22,70.0,60.0,52.0,60.0,55.6,51.5,100,87,59,29.94,29.78,2,0,8,0.00
2013-9-23,75.4,60.0,47.9,63.1,55.0,47.6,100,85,50,30.04,29.94,3,0,6,0.01
2013-9-24,78.4,63.0,50.1,61.9,56.6,49.8,100,83,49,30.07,29.89,2,0,5,0.00
2013-9-25,65.6,62.5,60.0,64.3,61.5,59.0,99,97,93,29.90,29.81,1,0,2,0.40
2013-9-26,75.8,64.2,54.5,62.6,60.0,53.9,99,88,57,30.04,29.87,3,0,5,0.05
2013-9-27,76.7,61.2,49.2,60.7,54.8,48.8,100,83,42,30.16,30.04,1,0,4,0.01
2013-9-28,75.4,60.0,48.2,59.5,54.5,47.8,100,84,52,30.24,30.11,2,0,4,0.00
2013-9-29,71.6,59.4,49.2,60.0,55.3,48.6,99,87,61,30.16,30.02,3,0,5,0.00
2013-9-30,72.2,63.8,58.2,62.3,59.0,57.1,98,85,61,30.08,29.98,3,0,5,0.00
2013-10-1,75.9,62.9,52.4,62.5,57.6,51.9,100,85,54,30.16,30.05,3,0,6,0.00
2013-10-2,78.9,62.3,50.0,64.3,57.0,49.7,100,85,51,30.19,30.08,3,0,6,0.00
2013-10-3,78.6,64.3,54.4,65.3,59.4,53.8,99,86,53,30.15,30.05,3,0,5,0.00
2013-10-4,82.0,66.9,56.5,65.9,61.3,56.2,100,84,51,30.18,30.07,2,0,5,0.00
2013-10-5,85.9,67.7,54.5,67.3,61.3,54.2,100,83,50,30.15,29.99,3,0,5,0.00
2013-10-6,83.8,71.0,57.2,64.7,60.9,56.4,99,73,43,30.01,29.80,9,2,17,0.00
2013-10-7,72.4,59.1,47.6,64.1,55.3,46.8,98,88,61,30.08,29.76,9,1,12,0.61
2013-10-8,71.7,54.5,43.2,52.5,47.7,42.8,99,81,43,30.20,30.08,3,1,5,0.00
2013-10-9,73.0,55.2,42.3,53.5,47.6,41.8,99,79,46,30.24,30.13,2,0,4,0.00
2013-10-10,69.2,54.7,40.3,54.8,48.3,39.8,100,82,46,30.17,30.06,2,0,5,0.00
2013-10-11,72.6,60.0,49.9,60.6,55.5,49.1,98,86,56,30.07,29.98,1,0,4,0.00
2013-10-12,70.6,63.2,59.3,61.8,58.4,55.1,98,85,68,30.10,30.00,3,0,6,0.01
2013-10-13,71.2,63.3,57.8,63.4,60.8,57.5,100,92,74,30.21,30.10,1,0,3,0.10
2013-10-14,76.8,62.9,55.0,63.6,59.3,54.3,100,89,58,30.24,30.10,2,0,5,0.00
2013-10-15,74.2,61.2,48.9,61.3,55.9,48.6,100,84,61,30.16,30.01,3,0,6,0.01
2013-10-16,69.5,60.7,51.1,60.0,56.3,50.0,98,86,68,30.05,29.95,3,0,4,0.00
2013-10-17,68.1,61.5,53.0,64.7,59.5,50.1,98,93,85,29.98,29.82,6,1,12,0.06
2013-10-18,64.1,54.4,49.2,51.1,48.1,45.0,96,81,54,30.06,29.96,3,0,5,0.00
2013-10-19,61.8,53.9,47.8,53.2,49.0,45.6,97,84,62,30.00,29.88,6,1,13,0.00
2013-10-20,62.4,48.2,37.3,46.0,39.2,30.4,98,75,33,30.11,30.00,2,0,5,0.00
2013-10-21,68.0,49.9,34.3,49.3,41.8,33.8,99,78,40,30.16,30.01,5,1,10,0.00
2013-10-22,63.8,55.3,47.2,51.4,49.0,45.6,96,81,60,30.03,29.83,5,1,9,0.00
2013-10-23,53.5,46.4,34.9,50.4,40.7,31.9,93,81,60,30.09,29.76,12,3,21,0.02
2013-10-24,49.9,40.5,31.2,39.3,34.6,29.6,94,80,59,30.26,30.09,6,2,14,0.01
2013-10-25,44.1,35.6,25.7,36.7,28.8,24.3,95,77,52,30.47,30.26,5,1,10,0.00
2013-10-26,55.1,38.6,20.3,35.2,26.8,19.3,97,68,31,30.41,30.14,6,1,12,0.01
2013-10-27,64.8,54.5,46.9,49.8,41.8,32.8,79,63,50,30.19,30.06,6,2,10,0.00
2013-10-28,64.1,57.5,52.5,56.2,52.0,49.3,97,83,65,30.26,30.13,4,1,6,0.03
2013-10-29,69.0,59.1,53.1,55.8,52.1,48.2,95,79,52,30.33,30.23,4,1,6,0.00
2013-10-30,74.3,61.4,52.6,58.8,54.3,50.2,96,79,54,30.27,30.13,6,1,11,0.01
2013-10-31,70.6,63.9,50.9,58.9,54.1,49.6,98,72,56,30.14,29.64,14,4,21,0.00
2013-11-1,71.0,63.8,51.4,61.1,53.7,44.7,95,71,43,29.76,29.60,13,4,24,0.21
2013-11-2,60.1,51.3,43.8,47.3,41.7,33.5,91,71,39,30.06,29.75,9,2,13,0.00
2013-11-3,53.4,42.1,33.7,41.7,35.3,31.1,98,79,49,30.39,30.06,4,0,7,0.00
2013-11-4,61.7,42.7,28.5,38.0,31.1,27.3,97,70,31,30.50,30.37,4,1,6,0.00
2013-11-5,68.0,53.9,37.6,36.4,31.4,18.5,82,47,16,30.48,30.37,3,0,7,0.00
2013-11-6,72.2,55.2,37.8,53.0,45.2,32.5,96,72,45,30.38,30.07,10,3,17,0.00
2013-11-7,61.9,50.5,32.7,55.5,44.4,30.4,97,81,54,30.25,29.99,7,2,12,0.16
2013-11-8,50.5,37.0,28.2,32.3,27.4,22.8,93,72,35,30.41,30.25,6,1,9,0.00
2013-11-9,57.4,38.6,24.0,33.7,28.0,22.5,96,71,29,30.37,30.26,5,1,8,0.00
2013-11-10,60.8,48.3,33.8,41.5,33.9,26.1,78,59,40,30.33,30.23,8,3,12,0.00
2013-11-11,62.7,41.5,22.7,31.4,26.0,20.7,95,60,21,30.37,30.19,4,1,7,0.00
2013-11-12,50.6,37.7,24.9,39.0,27.3,16.5,90,67,47,30.57,30.14,6,2,12,0.03
2013-11-13,39.9,29.0,19.2,21.9,19.0,16.8,91,68,44,30.69,30.53,4,1,7,0.00
2013-11-14,55.9,32.0,16.3,25.1,19.1,14.6,96,66,22,30.57,30.36,4,0,7,0.00
2013-11-15,51.4,37.6,23.6,46.2,32.6,19.3,98,83,51,30.38,30.22,2,0,3,0.19
2013-11-16,71.0,54.8,40.8,55.7,48.9,40.5,99,83,52,30.26,30.11,6,1,12,0.01
2013-11-17,70.0,63.5,59.2,60.7,55.7,51.6,87,76,59,30.13,29.80,10,6,19,0.23
2013-11-18,64.8,55.2,38.6,60.7,43.9,28.4,97,69,32,30.11,29.78,8,3,16,0.17
2013-11-19,48.4,38.4,27.3,30.9,27.8,24.6,92,67,40,30.28,30.11,4,0,6,0.00
2013-11-20,57.8,41.0,27.7,30.8,27.7,23.5,91,62,29,30.39,30.24,5,1,8,0.00
2013-11-21,65.1,50.1,32.9,53.1,42.7,27.4,93,76,57,30.45,30.32,8,2,14,0.00
2013-11-22,59.7,56.4,49.4,54.2,52.9,47.1,98,89,80,30.34,30.15,5,2,13,0.33
2013-11-23,54.1,44.2,29.9,53.4,38.2,18.9,98,80,53,30.35,30.15,6,2,12,0.06
2013-11-24,31.0,24.6,19.3,19.0,10.2,1.8,78,56,31,30.60,30.35,5,2,9,0.00
2013-11-25,37.9,29.8,18.7,31.4,17.7,10.6,91,62,43,30.56,30.26,2,0,5,0.04
2013-11-26,45.7,40.2,33.6,45.4,39.5,31.1,99,97,89,30.27,29.73,4,0,5,2.40
2013-11-27,39.6,29.0,23.3,39.3,26.4,16.9,99,90,75,30.32,29.75,8,2,12,0.15
2013-11-28,38.3,25.8,15.4,25.8,20.2,13.7,96,81,56,30.57,30.32,2,0,4,0.10
2013-11-29,46.0,28.8,16.3,29.0,22.7,15.1,97,81,42,30.67,30.56,2,0,4,0.06
2013-11-30,55.6,34.2,22.8,33.5,26.5,20.6,96,77,39,30.59,30.36,2,0,4,0.01
2013-12-1,53.2,34.9,22.0,36.6,28.5,20.5,97,80,47,30.36,30.07,5,0,10,0.00
2013-12-2,50.8,42.1,31.8,41.4,37.5,29.5,92,84,68,30.07,29.85,2,0,5,0.01
2013-12-3,60.4,49.9,39.8,49.9,44.9,37.7,97,84,66,29.92,29.84,4,0,9,0.01
2013-12-4,71.3,58.0,44.9,53.5,49.6,43.4,97,75,49,30.00,29.89,5,2,10,0.00
2013-12-5,73.5,62.9,52.0,62.3,55.7,49.0,97,78,58,30.03,29.91,6,2,12,0.07
2013-12-6,66.8,55.7,42.5,62.1,54.7,42.0,99,97,85,30.12,29.83,9,1,15,1.31
2013-12-7,42.6,36.7,34.1,42.1,35.7,32.4,99,96,91,30.44,30.09,3,1,5,0.03
2013-12-8,55.3,43.1,34.3,47.5,40.8,32.8,99,92,74,30.39,30.08,6,1,10,0.48
2013-12-9,48.2,44.9,39.3,47.4,44.4,39.0,99,98,95,30.16,30.03,6,1,9,0.35
2013-12-10,43.4,35.7,23.4,43.4,34.3,21.9,100,94,81,30.40,29.97,8,2,12,0.55
2013-12-11,46.0,33.0,20.2,30.9,24.9,19.4,98,75,39,30.51,30.37,4,1,6,0.00
2013-12-12,34.1,28.2,21.0,25.3,20.3,16.9,90,73,50,30.54,30.44,8,2,11,0.00
2013-12-13,47.0,30.5,15.9,29.7,21.0,14.5,96,71,33,30.47,30.25,3,0,6,0.00
2013-12-14,47.5,42.7,35.8,46.4,37.1,22.4,98,82,42,30.28,29.76,6,1,13,0.27
2013-12-15,47.4,35.5,31.0,46.5,32.8,27.7,97,90,82,30.19,29.77,7,4,13,0.06
2013-12-16,49.2,36.7,28.6,34.6,30.2,26.7,95,79,54,30.27,30.14,7,3,12,0.00
2013-12-17,53.4,44.0,36.1,38.6,32.3,19.1,78,64,46,30.19,29.96,11,5,19,0.00
2013-12-18,42.4,31.8,24.0,24.7,21.2,18.4,87,67,39,30.34,30.19,6,2,16,0.00
2013-12-19,54.6,35.4,20.0,32.2,24.6,17.8,93,69,34,30.38,30.20,1,0,4,0.00
2013-12-20,61.9,43.3,29.3,46.9,34.4,26.8,93,73,39,30.24,30.10,5,0,8,0.00
2013-12-21,72.8,65.9,59.0,60.2,55.6,47.1,76,69,61,30.10,29.81,13,5,20,0.00
2013-12-22,72.7,60.2,54.5,60.6,55.7,51.3,98,86,61,30.04,29.80,13,3,23,2.02
2013-12-23,54.6,44.4,33.3,54.0,43.0,29.3,99,95,85,30.31,29.99,7,2,10,0.38
2013-12-24,33.3,28.5,19.3,29.8,22.6,15.1,89,79,59,30.51,30.30,7,2,12,0.00
2013-12-25,43.7,25.9,14.3,25.1,19.2,12.9,96,78,42,30.53,30.36,3,0,5,0.00
2013-12-26,44.1,30.3,21.3,29.6,24.1,19.4,94,79,50,30.45,30.36,5,1,10,0.00
2013-12-27,48.1,30.0,19.0,30.4,22.8,17.8,97,78,32,30.54,30.42,3,0,6,0.00
2013-12-28,45.3,32.9,18.6,40.4,26.9,17.2,98,81,52,30.47,30.09,2,0,5,0.43
2013-12-29,46.1,43.3,40.3,44.8,42.0,39.5,99,95,92,30.09,29.83,8,3,16,0.40
2013-12-30,41.1,37.2,33.5,39.7,35.8,32.0,97,95,91,30.24,30.02,5,2,8,0.01
2013-12-31,37.9,31.3,22.0,32.0,26.9,20.8,95,85,59,30.45,30.21,8,3,13,0.00
2014-1-1,48.0,29.9,19.7,33.0,24.9,18.5,97,84,46,30.41,30.15,3,0,5,0.00
2014-1-2,38.2,30.8,18.4,37.5,29.0,11.0,98,93,72,30.15,29.74,12,3,20,0.17